Location: Brahman Valley
(40.6513°N, 111.8855°W)
Time: 22:19:16
(UTC+00:00)

Vanguard 2 - Pass Details

Date: 16 May 2021
Orbit: 552 x 2937 km, 32.9° (Epoch: 14 June)

Event Time Altitude Azimuth Distance (km) Brightness Sun altitude
Rises 12:50:00 0° 245° (WSW) 4,115 10.6 6.2°
Reaches altitude 10° 12:52:25 10° 241° (WSW) 3,405 10.2 6.7°
Maximum altitude 13:01:14 55° 166° (SSE) 2,200 10.0 8.3°
Drops below altitude 10° 13:15:29 10° 94° (E) 5,334 13.5 10.8°
Sets 13:20:19 0° 91° (E) 6,573 13.9 11.7°
